Regional Weather Roundup
Issued by NWS

Home | Current Version | Previous Version | Text Only | Print | Product List | Glossary On
Versions: 1 2 3 4 5 6 7 8 9 10 11 12 13 14 15 16 17 18 19 20 21 22 23 24 25 26 27 28 29 30 31 32 33 34 35 36 37 38 39 40 41 42 43 44 45 46 47 48 49 50
000
ASUS43 KOAX 231910
RWRNE

WEATHER ROUNDUP FOR NEBRASKA
NATIONAL WEATHER SERVICE OMAHA NE
200 PM CDT SAT AUG 23 2014

NOTES: SATELLITE DATA IS BEING USED TO AUGMENT CLOUD COVER ABOVE
       12000 FEET.
       "FAIR" INDICATES FEW OR NO CLOUDS BELOW 12,000 FEET WITH NO
       SIGNIFICANT WEATHER AND/OR OBSTRUCTIONS TO VISIBILITY.

  * THESE STATIONS DO NOT REPORT WEATHER SUCH AS RAIN...SNOW OR FOG.

NEZ001>004-019>022-054>056-232000-
NEBRASKA PANHANDLE

CITY           SKY/WX    TMP DP  RH WIND       PRES   REMARKS
SCOTTSBLUFF    MOSUNNY   81  58  45 W13       29.86F
ALLIANCE       PTSUNNY   73  60  63 S5        29.86F
CHADRON        MOSUNNY   77  61  57 N7        29.80F
KIMBALL        PTSUNNY   76  55  48 S5        29.90S
SIDNEY         MOSUNNY   77  58  51 SE5       29.89F
$$

NEZ057>060-069>072-079>082-232000-
SOUTHWEST NEBRASKA

CITY           SKY/WX    TMP DP  RH WIND       PRES   REMARKS
NORTH PLATTE   CLOUDY    75  67  76 S9        29.83F
IMPERIAL       PTSUNNY   78  65  63 S6        29.84F
LEXINGTON      PTSUNNY   82  71  68 S10       29.81F
MCCOOK         PTSUNNY   80  66  62 VRB3      29.83F
OGALLALA       CLOUDY    74  64  70 SW5       29.84F
$$

NEZ005>010-023>029-035>040-094-232000-
NORTH CENTRAL NEBRASKA

CITY           SKY/WX    TMP DP  RH WIND       PRES   REMARKS
VALENTINE      CLOUDY    73  66  78 S15       29.82F
AINSWORTH      CLOUDY    70  67  89 SE10G20   29.83F
BROKEN BOW     CLOUDY    78  69  73 S14       29.83S
O`NEILL        CLOUDY    76  70  82 SE14      29.83S
ORD            PTSUNNY   79  69  71 SE13G22   29.79F
THEDFORD       CLOUDY    73  67  81 S12       29.85F
$$

NEZ041-046>049-061>064-073>077-083>087-232000-
SOUTH CENTRAL NEBRASKA

CITY           SKY/WX    TMP DP  RH WIND       PRES   REMARKS
GRAND ISLAND   SUNNY     86  72  62 SE15      29.81F HX  92
AURORA         SUNNY     85  75  70 SE14      29.82S HX  94
HASTINGS       SUNNY     86  66  51 S15       29.81F
HEBRON         SUNNY     90  64  41 S13G20    29.82S HX  91
HOLDREGE       SUNNY     85  67  54 S13G23    29.81S
KEARNEY *      SUNNY     84  72  65 S16       29.81F
YORK           SUNNY     84 N/A N/A S14       29.82F
$$

NEZ011>018-030>034-042>045-232000-
NORTHEAST NEBRASKA

CITY           SKY/WX    TMP DP  RH WIND       PRES   REMARKS
NORFOLK        PTSUNNY   81  70  69 SE14      29.84S
ALBION         MOSUNNY   80  71  72 SE9G21    29.82F
BLAIR          MOSUNNY   86  73  65 SE12G17   29.85F HX  93
FREMONT        MOSUNNY   86  73  64 SE12G17   29.84F HX  92
TEKAMAH        PTSUNNY   85  73  67 SE12      29.84F HX  91
WAYNE          PTSUNNY   80  73  79 SE14      29.84F
$$

NEZ050>053-065>068-078-088>093-232000-
SOUTHEAST NEBRASKA

CITY           SKY/WX    TMP DP  RH WIND       PRES   REMARKS
LINCOLN        SUNNY     91  71  51 S13       29.83F HX  97
OMAHA EPPLEY   PTSUNNY   87  74  64 S14       29.83F HX  95
BEATRICE       SUNNY     92  69  46 S13       29.83F HX  97
FALLS CITY     SUNNY     91  72  53 SE10      29.85F HX  98
NEBRASKA CITY  SUNNY     88  71  58 S14       29.85F HX  94
PLATTSMOUTH    SUNNY     88  73  61 SE13      29.85F HX  95
$$

NEZ044-045-051>053-067-232000-
OMAHA AREA

CITY           SKY/WX    TMP DP  RH WIND       PRES   REMARKS
OMAHA EPPLEY   PTSUNNY   87  74  64 S14       29.83F HX  95
BLAIR          MOSUNNY   86  73  65 SE12G17   29.85F HX  93
FREMONT        MOSUNNY   86  73  64 SE12G17   29.84F HX  92
MILLARD        MOSUNNY   87  74  65 S14       29.83F HX  96
OFFUTT AFB     MOSUNNY   88  79  74 S12       29.83F HX 102
PLATTSMOUTH    SUNNY     88  73  61 SE13      29.85F HX  95
WAHOO          FAIR      87  73  63 S12G18    29.83F HX  93
$$


USA.gov is the U.S. government's official web portal to all federal, state and local government web resources and services.